Dauntless Aviation
Greetings, Guest! To participate, [sign up for a free account] or [log in]
Airports North America United States Colorado
98CO

NCMC HELIPORT

GREELEY, CO, USA

Airport Info

Location

Latitude / Longitude: 40°24'53"N / 104°42'28"W
  40°24.9'N / 104°42.4667'W
  40.4150 / -104.7078
Elevation: 4882 ft. (estimated)
Variation: 12E (1985)
From city: 00 miles N of GREELEY, CO

Operations

Facility use: Private
Sectional chart: DENVER
Control tower: no
Boundary ARTCC: DENVER
FSS: DENVER [1-800-WX-BRIEF]
Segmented circle: no

Communications

Nearby radio navigation aids

VOR radial/distance VOR name Freq Var
GLL 233oT/8.9 GILL VORTAC 114.20 13E
DVV 353oT/31.5 MILE HIGH VORTAC 114.70 11E
BJC 33oT/36.1 JEFFCO VOR/DME 115.40 11E
DEN 357oT/36.2 DENVER VOR/DME 117.90 11E
 
NDB name Hdg/Dist Freq Var ID

Services

Runway Information

Helipad H1

Dimensions: 40 x 40 ft.
Surface: PORTLAND CEMENT CONCRETE,NO SPECIAL SURFACE TREATMENT
 

Additional Remarks

Instrument Procedures

No published instrument procedures available
Topographic chart at:
Satellite photo at:
Airport distance calculator
From:
Weather Reports

METAR

KGXY
4.2nm NE
KGXY 191335Z AUTO 00000KT 10SM CLR M11/M16 A3009 RMK AO1
KFNL
14.3nm W
KFNL 191335Z AUTO 00000KT 5SM CLR M04/M06 A3010 RMK AO1
KLMO
25.8nm SW
KLMO 191335Z AUTO 27005KT 7SM CLR M07/M09 A3012 RMK AO2 T10741090
KEIK
28.6nm S
KEIK 191335Z AUTO 21005KT 5SM BR M09/M10 A3010 RMK AO2 T10891099
KBDU
33.3nm SW
KBDU 191335Z AUTO 00000KT 10SM CLR M05/M07 A3009 RMK AO2
KDEN
35.0nm SE
KDEN 191253Z 22007KT 10SM FEW090 SCT200 M05/M07 A3007 RMK AO2 SLP207 T10501067

TAF

KDEN
35.0nm SE
KDEN 191129Z 1912/2018 22006KT 4SM BR FEW100 SCT200 FM191500 24006KT P6SM FEW150 FM192000 17006KT P6SM FEW150 FEW220 FM200300 20007KT P6SM FEW150 SCT200 FM201400 21008KT P6SM SCT120 SCT200
KBJC
35.3nm S
KBJC 191129Z 1912/2012 27005KT 5SM BR FEW200 FM191600 VRB05KT P6SM FEW150 FEW220 FM200200 27006KT P6SM FEW150 SCT200
Safelog

 

Dauntless Aviation

© 2007-2014 Dauntless Aviation, all rights reserved
Information provided via PilotNav comes from a variety of official and unofficial data sources. As errors are possible, do not use PilotNav for primary flight planning purposes. Verify any information that you receive via PilotNav with current and canonical charts and other official documents. The material in this database is subject to database copyrights held by Dauntless Aviation and may not be copied without the express permission of Dauntless Aviation - licenses for use of part of all of this data are available for purchase; enquire via the Dauntless Aviation helpdesk. A number of mechanisms and markers exist in the database to protect against and identify infringement / copyright. Automated queries against this website are stictly prohibited, and all activity is logged and analyzed.